VOZ1527 YMML-YMLT

Flight info

Callsign VOZ1527
Flight time 0h 50m
Altitude 37000
Route SUNTI H169 IRSOM W105 LT
Aircraft B737/M-SDE2E3FGHIRWXY/LB1

Departure

Time 2026-04-18 04:07
Airport Melbourne Airport (YMML)

Arrival

Time 2026-04-18 04:57
Airport Launceston Airport (YMLT)
Time Latitude Longitude Altitude Speed Heading
2026-04-18 03:36 -37.67268 144.84661 385 ft 0 kts 172°
2026-04-18 03:58 -37.67243 144.84656 385 ft 4 kts 171°
2026-04-18 03:59 -37.67217 144.84652 386 ft 4 kts 182°
2026-04-18 03:59 -37.67196 144.84658 386 ft 4 kts 249°
2026-04-18 03:59 -37.67196 144.84653 386 ft 4 kts 262°
2026-04-18 03:59 -37.67200 144.84619 386 ft 4 kts 261°
2026-04-18 04:00 -37.67204 144.84586 385 ft 4 kts 261°
2026-04-18 04:00 -37.67207 144.84562 385 ft 1 kts 261°
2026-04-18 04:02 -37.67208 144.84559 385 ft 2 kts 261°
2026-04-18 04:02 -37.67208 144.84491 384 ft 13 kts 281°
2026-04-18 04:02 -37.67203 144.84367 382 ft 15 kts 265°
2026-04-18 04:03 -37.67166 144.84263 381 ft 14 kts 342°
2026-04-18 04:03 -37.67071 144.84245 383 ft 13 kts 351°
2026-04-18 04:03 -37.66980 144.84228 385 ft 13 kts 352°
2026-04-18 04:03 -37.66892 144.84212 388 ft 13 kts 350°
2026-04-18 04:04 -37.66806 144.84197 391 ft 12 kts 352°
2026-04-18 04:04 -37.66722 144.84177 390 ft 12 kts 353°
2026-04-18 04:04 -37.66641 144.84164 397 ft 12 kts 353°
2026-04-18 04:04 -37.66565 144.84135 401 ft 11 kts 324°
2026-04-18 04:05 -37.66522 144.84055 403 ft 11 kts 282°
2026-04-18 04:05 -37.66516 144.83962 401 ft 10 kts 275°
2026-04-18 04:05 -37.66510 144.83874 403 ft 7 kts 274°
2026-04-18 04:05 -37.66510 144.83873 403 ft 0 kts 274°
2026-04-18 04:06 -37.66508 144.83838 403 ft 10 kts 273°
2026-04-18 04:06 -37.66544 144.83728 401 ft 23 kts 189°
2026-04-18 04:06 -37.66976 144.83800 386 ft 102 kts 171°
2026-04-18 04:06 -37.67886 144.83959 532 ft 148 kts 173°
2026-04-18 04:07 -37.68948 144.84098 1180 ft 162 kts 177°
2026-04-18 04:07 -37.70113 144.84276 1865 ft 175 kts 171°
2026-04-18 04:07 -37.71351 144.84535 2610 ft 185 kts 171°
2026-04-18 04:07 -37.72644 144.84799 3361 ft 191 kts 171°
2026-04-18 04:08 -37.73966 144.85063 4063 ft 198 kts 172°
2026-04-18 04:08 -37.75362 144.85337 4649 ft 214 kts 172°
2026-04-18 04:08 -37.76922 144.85637 4947 ft 239 kts 172°
2026-04-18 04:08 -37.78658 144.85966 4991 ft 260 kts 172°
2026-04-18 04:09 -37.80457 144.86306 4995 ft 261 kts 172°
2026-04-18 04:09 -37.82252 144.86644 5001 ft 260 kts 172°
2026-04-18 04:09 -37.84044 144.86991 5406 ft 260 kts 169°
2026-04-18 04:09 -37.85782 144.87662 6319 ft 264 kts 160°
2026-04-18 04:10 -37.86927 144.88235 6908 ft 266 kts 159°
2026-04-18 04:10 -37.89247 144.89464 8132 ft 272 kts 159°
2026-04-18 04:10 -37.90410 144.90083 8762 ft 275 kts 160°
2026-04-18 04:10 -37.92192 144.91027 9716 ft 280 kts 160°
2026-04-18 04:11 -37.94641 144.92310 10621 ft 301 kts 161°
2026-04-18 04:11 -37.95996 144.93012 10785 ft 319 kts 161°
2026-04-18 04:11 -37.98778 144.94453 11781 ft 330 kts 161°
2026-04-18 04:11 -38.00911 144.95557 12722 ft 333 kts 161°
2026-04-18 04:12 -38.02364 144.96308 13371 ft 335 kts 161°
2026-04-18 04:12 -38.04534 144.97428 14293 ft 339 kts 162°
2026-04-18 04:12 -38.06701 144.98546 15152 ft 342 kts 162°
2026-04-18 04:12 -38.08918 144.99688 16056 ft 345 kts 162°
2026-04-18 04:13 -38.11158 145.00843 16969 ft 349 kts 162°
2026-04-18 04:13 -38.13407 145.02004 17934 ft 351 kts 162°
2026-04-18 04:13 -38.15684 145.03178 18752 ft 356 kts 162°
2026-04-18 04:13 -38.17990 145.04368 19486 ft 360 kts 162°
2026-04-18 04:14 -38.20325 145.05574 20263 ft 364 kts 162°
2026-04-18 04:14 -38.22681 145.06792 21036 ft 367 kts 162°
2026-04-18 04:14 -38.25059 145.08022 21784 ft 371 kts 161°
2026-04-18 04:14 -38.27467 145.09269 22520 ft 375 kts 161°
2026-04-18 04:15 -38.29899 145.10529 23240 ft 380 kts 161°
2026-04-18 04:15 -38.32363 145.11806 23932 ft 384 kts 161°
2026-04-18 04:15 -38.34849 145.13096 24215 ft 386 kts 161°
2026-04-18 04:15 -38.37339 145.14391 24240 ft 385 kts 161°
2026-04-18 04:16 -38.39831 145.15686 24247 ft 388 kts 161°
2026-04-18 04:16 -38.42330 145.16987 24250 ft 387 kts 161°
2026-04-18 04:16 -38.44785 145.18265 24259 ft 387 kts 161°
2026-04-18 04:16 -38.47280 145.19564 24257 ft 386 kts 161°
2026-04-18 04:17 -38.49771 145.20862 24252 ft 386 kts 161°
2026-04-18 04:17 -38.52267 145.22117 24249 ft 386 kts 163°
2026-04-18 04:17 -38.54802 145.23265 24248 ft 385 kts 164°
2026-04-18 04:17 -38.57341 145.24364 24245 ft 385 kts 165°
2026-04-18 04:18 -38.59887 145.25454 24249 ft 385 kts 165°
2026-04-18 04:18 -38.62431 145.26547 24255 ft 385 kts 165°
2026-04-18 04:18 -38.64965 145.27645 24254 ft 385 kts 165°
2026-04-18 04:18 -38.67503 145.28751 24253 ft 384 kts 165°
2026-04-18 04:19 -38.70032 145.29858 24247 ft 384 kts 165°
2026-04-18 04:19 -38.72555 145.30968 24243 ft 383 kts 165°
2026-04-18 04:19 -38.75066 145.32073 24350 ft 389 kts 165°
2026-04-18 04:19 -38.77637 145.33207 24948 ft 391 kts 165°
2026-04-18 04:20 -38.80206 145.34343 25696 ft 390 kts 165°
2026-04-18 04:20 -38.82778 145.35481 26291 ft 393 kts 165°
2026-04-18 04:20 -38.85378 145.36631 26795 ft 398 kts 165°
2026-04-18 04:20 -38.88007 145.37795 27326 ft 401 kts 164°
2026-04-18 04:21 -38.90657 145.38970 27882 ft 404 kts 164°
2026-04-18 04:21 -38.93326 145.40155 28431 ft 407 kts 164°
2026-04-18 04:21 -38.96017 145.41350 28932 ft 411 kts 164°
2026-04-18 04:21 -38.98728 145.42555 29416 ft 414 kts 164°
2026-04-18 04:22 -39.01467 145.43773 29891 ft 418 kts 164°
2026-04-18 04:22 -39.04226 145.45002 30371 ft 420 kts 164°
2026-04-18 04:22 -39.06980 145.46231 30904 ft 419 kts 164°
2026-04-18 04:22 -39.09723 145.47456 31492 ft 416 kts 164°
2026-04-18 04:23 -39.12460 145.48679 32033 ft 415 kts 165°
2026-04-18 04:23 -39.15180 145.49895 32540 ft 414 kts 165°
2026-04-18 04:23 -39.17902 145.51112 33000 ft 414 kts 165°
2026-04-18 04:23 -39.20627 145.52331 33476 ft 414 kts 165°
2026-04-18 04:24 -39.23327 145.53550 34100 ft 409 kts 165°
2026-04-18 04:24 -39.26015 145.54756 34528 ft 409 kts 165°
2026-04-18 04:24 -39.28709 145.55961 34822 ft 410 kts 165°
2026-04-18 04:24 -39.31378 145.57155 35135 ft 411 kts 165°
2026-04-18 04:25 -39.34078 145.58366 35516 ft 410 kts 166°
2026-04-18 04:25 -39.36777 145.59578 35879 ft 410 kts 166°
2026-04-18 04:25 -39.39468 145.60789 36201 ft 410 kts 166°
2026-04-18 04:25 -39.42168 145.62005 36522 ft 410 kts 166°
2026-04-18 04:26 -39.44862 145.63220 36861 ft 410 kts 166°
2026-04-18 04:26 -39.47560 145.64437 37183 ft 410 kts 166°
2026-04-18 04:26 -39.50267 145.65658 37208 ft 416 kts 166°
2026-04-18 04:27 -39.55743 145.68132 37227 ft 414 kts 166°
2026-04-18 04:27 -39.61121 145.70574 37214 ft 407 kts 166°
2026-04-18 04:28 -39.66438 145.72985 37220 ft 408 kts 166°
2026-04-18 04:28 -39.71805 145.75421 37225 ft 409 kts 166°
2026-04-18 04:29 -39.77180 145.77866 37215 ft 409 kts 166°
2026-04-18 04:29 -39.82557 145.80317 37216 ft 409 kts 166°
2026-04-18 04:30 -39.87930 145.82772 37220 ft 410 kts 166°
2026-04-18 04:30 -39.93307 145.85232 37212 ft 409 kts 166°
2026-04-18 04:31 -39.98542 145.87638 37190 ft 384 kts 167°
2026-04-18 04:31 -40.00992 145.88766 37123 ft 371 kts 167°
2026-04-18 04:31 -40.03400 145.89880 36881 ft 365 kts 166°
2026-04-18 04:31 -40.05788 145.90985 36321 ft 366 kts 166°
2026-04-18 04:32 -40.08231 145.92111 35354 ft 378 kts 166°
2026-04-18 04:32 -40.10755 145.93272 34462 ft 389 kts 166°
2026-04-18 04:32 -40.13310 145.94457 33858 ft 388 kts 165°
2026-04-18 04:32 -40.15836 145.95635 33435 ft 383 kts 165°
2026-04-18 04:33 -40.18330 145.96801 33017 ft 377 kts 165°
2026-04-18 04:33 -40.20791 145.97950 32548 ft 374 kts 165°
2026-04-18 04:33 -40.23206 145.99077 32070 ft 371 kts 165°
2026-04-18 04:33 -40.25625 146.00206 31612 ft 368 kts 165°
2026-04-18 04:34 -40.28028 146.01327 31174 ft 365 kts 165°
2026-04-18 04:34 -40.30416 146.02442 30738 ft 362 kts 165°
2026-04-18 04:34 -40.32777 146.03545 30314 ft 359 kts 165°
2026-04-18 04:34 -40.35117 146.04639 29828 ft 356 kts 165°
2026-04-18 04:35 -40.37439 146.05726 29323 ft 352 kts 165°
2026-04-18 04:35 -40.39741 146.06804 28790 ft 350 kts 165°
2026-04-18 04:35 -40.42023 146.07873 28270 ft 347 kts 165°
2026-04-18 04:35 -40.44297 146.08939 27693 ft 347 kts 165°
2026-04-18 04:36 -40.46558 146.10000 27236 ft 343 kts 165°
2026-04-18 04:36 -40.48792 146.11050 26817 ft 339 kts 165°
2026-04-18 04:36 -40.51003 146.12089 26389 ft 335 kts 165°
2026-04-18 04:36 -40.53167 146.13108 25973 ft 332 kts 165°
2026-04-18 04:37 -40.55328 146.14125 25556 ft 328 kts 165°
2026-04-18 04:37 -40.57471 146.15134 25154 ft 325 kts 165°
2026-04-18 04:37 -40.59596 146.16135 24750 ft 322 kts 165°
2026-04-18 04:37 -40.61695 146.17125 24354 ft 319 kts 165°
2026-04-18 04:38 -40.63792 146.18114 23958 ft 319 kts 165°
2026-04-18 04:38 -40.65893 146.19104 23509 ft 321 kts 165°
2026-04-18 04:38 -40.67994 146.20096 23050 ft 319 kts 165°
2026-04-18 04:38 -40.70072 146.21081 22664 ft 315 kts 165°
2026-04-18 04:39 -40.72116 146.22048 22400 ft 310 kts 165°
2026-04-18 04:39 -40.74148 146.23008 22082 ft 310 kts 165°
2026-04-18 04:39 -40.76165 146.23960 21704 ft 313 kts 165°
2026-04-18 04:39 -40.78220 146.24930 21276 ft 313 kts 165°
2026-04-18 04:40 -40.80260 146.25896 20859 ft 310 kts 165°
2026-04-18 04:40 -40.82280 146.26854 20455 ft 307 kts 165°
2026-04-18 04:40 -40.84280 146.27803 20051 ft 304 kts 165°
2026-04-18 04:40 -40.86266 146.28745 19651 ft 301 kts 165°
2026-04-18 04:41 -40.88233 146.29679 19241 ft 299 kts 165°
2026-04-18 04:41 -40.90185 146.30606 18861 ft 298 kts 165°
2026-04-18 04:41 -40.92147 146.31536 18473 ft 301 kts 165°
2026-04-18 04:41 -40.94121 146.32474 18007 ft 301 kts 165°
2026-04-18 04:42 -40.96080 146.33407 17567 ft 298 kts 165°
2026-04-18 04:42 -40.98023 146.34333 17163 ft 295 kts 165°
2026-04-18 04:42 -40.99941 146.35247 16740 ft 292 kts 165°
2026-04-18 04:42 -41.01846 146.36156 16354 ft 289 kts 165°
2026-04-18 04:43 -41.03731 146.37055 15958 ft 287 kts 165°
2026-04-18 04:43 -41.05578 146.37937 15571 ft 285 kts 165°
2026-04-18 04:43 -41.07453 146.38831 15190 ft 288 kts 165°
2026-04-18 04:43 -41.09342 146.39733 14787 ft 287 kts 165°
2026-04-18 04:44 -41.11219 146.40631 14383 ft 285 kts 165°
2026-04-18 04:44 -41.13079 146.41521 13979 ft 284 kts 164°
2026-04-18 04:44 -41.14932 146.42408 13547 ft 283 kts 164°
2026-04-18 04:44 -41.16683 146.43616 13091 ft 288 kts 147°
2026-04-18 04:45 -41.18052 146.45582 12694 ft 294 kts 130°
2026-04-18 04:45 -41.19147 146.47871 12297 ft 294 kts 127°
2026-04-18 04:45 -41.20194 146.50201 11886 ft 293 kts 126°
2026-04-18 04:45 -41.21227 146.52528 11481 ft 291 kts 126°
2026-04-18 04:46 -41.22256 146.54838 11087 ft 290 kts 126°
2026-04-18 04:46 -41.23282 146.57129 10691 ft 288 kts 126°
2026-04-18 04:46 -41.24297 146.59384 10261 ft 288 kts 126°
2026-04-18 04:46 -41.25307 146.61625 10054 ft 279 kts 126°
2026-04-18 04:47 -41.26298 146.63832 9680 ft 276 kts 126°
2026-04-18 04:47 -41.27286 146.66014 9320 ft 274 kts 126°
2026-04-18 04:47 -41.28266 146.68177 8948 ft 272 kts 126°
2026-04-18 04:47 -41.29239 146.70324 8595 ft 269 kts 126°
2026-04-18 04:48 -41.30203 146.72453 8239 ft 267 kts 126°
2026-04-18 04:48 -41.31155 146.74561 7893 ft 265 kts 126°
2026-04-18 04:48 -41.32102 146.76657 7554 ft 264 kts 125°
2026-04-18 04:48 -41.33034 146.78718 7217 ft 263 kts 125°
2026-04-18 04:49 -41.33973 146.80800 6861 ft 261 kts 125°
2026-04-18 04:49 -41.34900 146.82858 6536 ft 257 kts 125°
2026-04-18 04:49 -41.35818 146.84887 6171 ft 255 kts 124°
2026-04-18 04:49 -41.36729 146.86912 5837 ft 253 kts 123°
2026-04-18 04:50 -41.37631 146.88918 5491 ft 252 kts 123°
2026-04-18 04:50 -41.38527 146.90913 5231 ft 248 kts 123°
2026-04-18 04:50 -41.39392 146.92840 5123 ft 238 kts 123°
2026-04-18 04:50 -41.40224 146.94695 5003 ft 229 kts 123°
2026-04-18 04:51 -41.41019 146.96475 4913 ft 219 kts 121°
2026-04-18 04:51 -41.41378 146.98386 4755 ft 220 kts 85°
2026-04-18 04:51 -41.41076 147.00414 4544 ft 227 kts 78°
2026-04-18 04:51 -41.40720 147.02456 4300 ft 225 kts 79°
2026-04-18 04:52 -41.40366 147.04487 4031 ft 225 kts 78°
2026-04-18 04:52 -41.40035 147.06475 3874 ft 218 kts 85°
2026-04-18 04:52 -41.40271 147.08379 3666 ft 208 kts 123°
2026-04-18 04:52 -41.41207 147.09786 3459 ft 200 kts 144°
2026-04-18 04:53 -41.42350 147.10806 3189 ft 196 kts 149°
2026-04-18 04:53 -41.43496 147.11757 2925 ft 192 kts 149°
2026-04-18 04:53 -41.44604 147.12683 2662 ft 183 kts 149°
2026-04-18 04:53 -41.45644 147.13559 2407 ft 171 kts 149°
2026-04-18 04:54 -41.46607 147.14371 2210 ft 156 kts 149°
2026-04-18 04:54 -41.47464 147.15095 2047 ft 138 kts 150°
2026-04-18 04:54 -41.48211 147.15727 1824 ft 128 kts 150°
2026-04-18 04:54 -41.48930 147.16348 1659 ft 117 kts 153°
2026-04-18 04:55 -41.49611 147.16933 1496 ft 119 kts 148°
2026-04-18 04:55 -41.50303 147.17581 1384 ft 124 kts 151°
2026-04-18 04:55 -41.51026 147.18191 1252 ft 121 kts 156°
2026-04-18 04:56 -41.52474 147.19381 960 ft 125 kts 153°
2026-04-18 04:56 -41.53183 147.19974 766 ft 121 kts 151°
2026-04-18 04:56 -41.53883 147.20571 601 ft 114 kts 150°
2026-04-18 04:56 -41.54480 147.21073 593 ft 83 kts 147°
2026-04-18 04:57 -41.54838 147.21386 588 ft 40 kts 146°
2026-04-18 04:57 -41.54980 147.21508 588 ft 21 kts 148°
2026-04-18 04:57 -41.55121 147.21633 592 ft 25 kts 146°
2026-04-18 04:57 -41.55230 147.21570 587 ft 23 kts 276°
2026-04-18 04:58 -41.55118 147.21432 583 ft 22 kts 328°
2026-04-18 04:58 -41.54990 147.21320 583 ft 22 kts 328°
2026-04-18 04:58 -41.54865 147.21214 582 ft 21 kts 324°
2026-04-18 04:58 -41.54743 147.21110 586 ft 20 kts 327°
2026-04-18 04:59 -41.54625 147.21009 587 ft 20 kts 327°
2026-04-18 04:59 -41.54549 147.20945 589 ft 19 kts 327°
2026-04-18 04:59 -41.54432 147.20845 583 ft 21 kts 327°
2026-04-18 04:59 -41.54318 147.20748 583 ft 14 kts 328°
2026-04-18 05:00 -41.54274 147.20676 582 ft 8 kts 280°
2026-04-18 05:00 -41.54271 147.20660 582 ft 2 kts 289°
2026-04-18 05:00 -41.54266 147.20644 582 ft 0 kts 293°
2026-04-18 05:00 -41.54263 147.20635 582 ft 1 kts 294°